,,Stat6,,Stat2,,Stat8,,Stat9,,Stat10,,Wind1,,Wind1,
time,status,PA1M_AVG,status,PR1M_SUM,status,RH1M_AVG,status,SR1M_AVG,status,TA1M_AVG,status,W1dAve1m,status,W1sAve1m,
2008-12-10, 00:00:00,VALID,918.638,VALID,0,VALID,100,VALID,-0.0509425,VALID,18.8895,VALID,131,VALID,0,
2008-12-10, 00:01:00,VALID,918.631,VALID,0,VALID,100,VALID,-0.0679233,VALID,18.8725,VALID,131,VALID,0,
2008-12-10, 00:02:00,VALID,918.622,VALID,0,VALID,100,VALID,-0.0509425,VALID,18.876,VALID,140,VALID,0,
2008-12-10, 00:03:00,VALID,918.598,VALID,0,VALID,100,VALID,-0.0849042,VALID,18.8658,VALID,140,VALID,0,
2008-12-10, 00:04:00,VALID,918.592,VALID,0,VALID,100,VALID,-0.0679233,VALID,18.8857,VALID,140,VALID,0,
2008-12-10, 00:05:00,VALID,918.568,VALID,0,VALID,100,VALID,-0.0849042,VALID,18.9022,VALID,136,VALID,0,
2008-12-10, 00:06:00,VALID,918.548,VALID,0,VALID,100,VALID,-0.0339617,VALID,18.8887,VALID,126,VALID,0,
2008-12-10, 00:07:00,VALID,918.548,VALID,0,VALID,100,VALID,0,VALID,18.885,VALID,124,VALID,0,
2008-12-10, 00:08:00,VALID,918.53,VALID,0,VALID,100,VALID,0.0169808,VALID,18.8711,VALID,124,VALID,0,
2008-12-10, 00:09:00,VALID,918.496,VALID,0,VALID,100,VALID,0.0679233,VALID,18.8743,VALID,124,VALID,0,
2008-12-10, 00:10:00,VALID,918.483,VALID,0,VALID,100,VALID,0.0679233,VALID,18.8641,VALID,124,VALID,0,
2008-12-10, 00:11:00,VALID,918.456,VALID,0,VALID,100,VALID,0.0679233,VALID,18.8611,VALID,124,VALID,0,
2008-12-10, 00:12:00,VALID,918.433,VALID,0,VALID,100,VALID,0.0849042,VALID,18.8609,VALID,124,VALID,0,
2008-12-10, 00:13:00,VALID,918.425,VALID,0,VALID,100,VALID,0.0849042,VALID,18.8741,VALID,124,VALID,0,
2008-12-10, 00:14:00,VALID,918.395,VALID,0,VALID,100,VALID,0.0849042,VALID,18.9,VALID,124,VALID,0,
2008-12-10, 00:15:00,VALID,918.381,VALID,0,VALID,100,VALID,0.0509425,VALID,18.9165,VALID,124,VALID,0,
2008-12-10, 00:16:00,VALID,918.367,VALID,0,VALID,100,VALID,0.0509425,VALID,18.9195,VALID,126,VALID,0,
2008-12-10, 00:17:00,VALID,918.356,VALID,0,VALID,100,VALID,0.0679233,VALID,18.9195,VALID,142,VALID,0,
2008-12-10, 00:18:00,VALID,918.323,VALID,0,VALID,100,VALID,0.0339617,VALID,18.9195,VALID,141,VALID,0,
2008-12-10, 00:19:00,VALID,918.313,VALID,0,VALID,100,VALID,0.0509425,VALID,18.9095,VALID,137,VALID,0,
2008-12-10, 00:20:00,VALID,918.288,VALID,0,VALID,100,VALID,0.0509425,VALID,18.9065,VALID,131,VALID,0,
2008-12-10, 00:21:00,VALID,918.265,VALID,0,VALID,100,VALID,0.0339617,VALID,18.9135,VALID,128,VALID,0,
2008-12-10, 00:22:00,VALID,918.249,VALID,0,VALID,100,VALID,0,VALID,18.9302,VALID,125,VALID,0,
2008-12-10, 00:23:00,VALID,918.231,VALID,0,VALID,100,VALID,-0.0509425,VALID,18.9277,VALID,125,VALID,0,
2008-12-10, 00:24:00,VALID,918.222,VALID,0,VALID,100,VALID,-0.0679233,VALID,18.9277,VALID,125,VALID,0,
2008-12-10, 00:25:00,VALID,918.216,VALID,0,VALID,100,VALID,-0.0169808,VALID,18.9372,VALID,125,VALID,0,
2008-12-10, 00:26:00,VALID,918.208,VALID,0,VALID,100,VALID,-0.0339617,VALID,18.9466,VALID,125,VALID,0,
2008-12-10, 00:27:00,VALID,918.203,VALID,0,VALID,100,VALID,-0.0169808,VALID,18.9631,VALID,125,VALID,0,
2008-12-10, 00:28:00,VALID,918.198,VALID,0,VALID,100,VALID,-0.0169808,VALID,18.9758,VALID,125,VALID,0,
2008-12-10, 00:29:00,VALID,918.192,VALID,0,VALID,100,VALID,-0.0679233,VALID,19.0083,VALID,127,VALID,0,
2008-12-10, 00:30:00,VALID,918.175,VALID,0,VALID,100,VALID,-0.0339617,VALID,19.022,VALID,134,VALID,0,
2008-12-10, 00:31:00,VALID,918.156,VALID,0,VALID,100,VALID,-0.0339617,VALID,19.0245,VALID,134,VALID,0,
2008-12-10, 00:32:00,VALID,918.121,VALID,0,VALID,100,VALID,-0.0509425,VALID,19.031,VALID,134,VALID,0,
2008-12-10, 00:33:00,VALID,918.096,VALID,0,VALID,100,VALID,-0.0339617,VALID,19.015,VALID,134,VALID,0,
2008-12-10, 00:34:00,VALID,918.068,VALID,0,VALID,100,VALID,-0.0169808,VALID,18.9793,VALID,134,VALID,0,
2008-12-10, 00:35:00,VALID,918.05,VALID,0,VALID,100,VALID,-0.0339617,VALID,18.9599,VALID,134,VALID,0,
2008-12-10, 00:36:00,VALID,918.033,VALID,0,VALID,100,VALID,-0.0169808,VALID,18.9272,VALID,140,VALID,0,
2008-12-10, 00:37:00,VALID,918.016,VALID,0,VALID,100,VALID,0,VALID,18.9015,VALID,148,VALID,0,
2008-12-10, 00:38:00,VALID,918.001,VALID,0,VALID,100,VALID,-0.0339617,VALID,18.885,VALID,150,VALID,0,
2008-12-10, 00:39:00,VALID,917.981,VALID,0,VALID,100,VALID,-0.0509425,VALID,18.869,VALID,150,VALID,0,
2008-12-10, 00:40:00,VALID,917.962,VALID,0,VALID,100,VALID,-0.0509425,VALID,18.8431,VALID,149,VALID,0,
2008-12-10, 00:41:00,VALID,917.948,VALID,0,VALID,100,VALID,0,VALID,18.8199,VALID,147,VALID,0.0945313,
2008-12-10, 00:42:00,VALID,917.948,VALID,0,VALID,100,VALID,-0.0339617,VALID,18.8271,VALID,139,VALID,0,
2008-12-10, 00:43:00,VALID,917.939,VALID,0,VALID,100,VALID,-0.0679233,VALID,18.8074,VALID,125,VALID,0.286882,
2008-12-10, 00:44:00,VALID,917.919,VALID,0,VALID,100,VALID,0,VALID,18.7942,VALID,109,VALID,0.00104167,
2008-12-10, 00:45:00,VALID,917.912,VALID,0,VALID,100,VALID,-0.0339617,VALID,18.7587,VALID,114,VALID,0.00399709,
2008-12-10, 00:46:00,VALID,917.91,VALID,0,VALID,100,VALID,-0.0169808,VALID,18.7298,VALID,128,VALID,0.0849095,
2008-12-10, 00:47:00,VALID,917.89,VALID,0,VALID,100,VALID,-0.0509425,VALID,18.7133,VALID,132,VALID,0.531808,
2008-12-10, 00:48:00,VALID,917.884,VALID,0,VALID,100,VALID,0,VALID,18.7066,VALID,135,VALID,0.59484,
2008-12-10, 00:49:00,VALID,917.865,VALID,0,VALID,100,VALID,-0.0169808,VALID,18.7034,VALID,134,VALID,0,
2008-12-10, 00:50:00,VALID,917.854,VALID,0,VALID,100,VALID,-0.0509425,VALID,18.6904,VALID,133,VALID,0,
2008-12-10, 00:51:00,VALID,917.83,VALID,0,VALID,100,VALID,0,VALID,18.6739,VALID,124,VALID,0,
2008-12-10, 00:52:00,VALID,917.821,VALID,0,VALID,100,VALID,-0.0339617,VALID,18.6809,VALID,129,VALID,0,
2008-12-10, 00:53:00,VALID,917.809,VALID,0,VALID,100,VALID,0,VALID,18.6547,VALID,124,VALID,0,
2008-12-10, 00:54:00,VALID,917.792,VALID,0,VALID,100,VALID,-0.0169808,VALID,18.645,VALID,126,VALID,0,
2008-12-10, 00:55:00,VALID,917.773,VALID,0,VALID,100,VALID,0,VALID,18.6415,VALID,126,VALID,0,
2008-12-10, 00:56:00,VALID,917.758,VALID,0,VALID,100,VALID,0,VALID,18.6489,VALID,112,VALID,0,
2008-12-10, 00:57:00,VALID,917.739,VALID,0,VALID,100,VALID,0,VALID,18.6353,VALID,98,VALID,0,
2008-12-10, 00:58:00,VALID,917.716,VALID,0,VALID,100,VALID,-0.0339617,VALID,18.6515,VALID,97,VALID,0.0768532,
2008-12-10, 00:59:00,VALID,917.712,VALID,0,VALID,100,VALID,-0.0169808,VALID,18.648,VALID,111,VALID,0.13228,
2008-12-10, 01:00:00,VALID,917.711,VALID,0,VALID,100,VALID,-0.0679233,VALID,18.6607,VALID,132,VALID,0,
2008-12-10, 01:01:00,VALID,917.683,VALID,0,VALID,100,VALID,-0.0169808,VALID,18.6999,VALID,139,VALID,0,
2008-12-10, 01:02:00,VALID,917.657,VALID,0,VALID,100,VALID,0.0169808,VALID,18.7122,VALID,143,VALID,0,
2008-12-10, 01:03:00,VALID,917.647,VALID,0,VALID,100,VALID,0.0169808,VALID,18.7386,VALID,143,VALID,0,
2008-12-10, 01:04:00,VALID,917.623,VALID,0,VALID,100,VALID,0,VALID,18.7321,VALID,143,VALID,0,
2008-12-10, 01:05:00,VALID,917.608,VALID,0,VALID,100,VALID,-0.0169808,VALID,18.6672,VALID,143,VALID,0,
2008-12-10, 01:06:00,VALID,917.596,VALID,0,VALID,100,VALID,-0.0169808,VALID,18.6415,VALID,143,VALID,0,
2008-12-10, 01:07:00,VALID,917.598,VALID,0,VALID,100,VALID,0.0169808,VALID,18.6253,VALID,143,VALID,0,
2008-12-10, 01:08:00,VALID,917.589,VALID,0,VALID,100,VALID,-0.0169808,VALID,18.6253,VALID,16,VALID,0,
2008-12-10, 01:09:00,VALID,917.596,VALID,0,VALID,100,VALID,-0.0509425,VALID,18.619,VALID,8,VALID,0,
2008-12-10, 01:10:00,VALID,917.598,VALID,0,VALID,100,VALID,-0.0339617,VALID,18.5956,VALID,8,VALID,0,
2008-12-10, 01:11:00,VALID,917.591,VALID,0,VALID,100,VALID,-0.0339617,VALID,18.5864,VALID,8,VALID,0,
2008-12-10, 01:12:00,VALID,917.585,VALID,0,VALID,100,VALID,-0.0679233,VALID,18.5868,VALID,8,VALID,0,
2008-12-10, 01:13:00,VALID,917.58,VALID,0,VALID,100,VALID,-0.0509425,VALID,18.5701,VALID,8,VALID,0,
2008-12-10, 01:14:00,VALID,917.565,VALID,0,VALID,100,VALID,-0.0339617,VALID,18.5641,VALID,8,VALID,0,
2008-12-10, 01:15:00,VALID,917.553,VALID,0,VALID,100,VALID,0,VALID,18.5477,VALID,8,VALID,0,
2008-12-10, 01:16:00,VALID,917.556,VALID,0,VALID,100,VALID,-0.0169808,VALID,18.5217,VALID,8,VALID,0,
2008-12-10, 01:17:00,VALID,917.538,VALID,0,VALID,100,VALID,-0.0509425,VALID,18.4596,VALID,8,VALID,0,
2008-12-10, 01:18:00,VALID,917.505,VALID,0,VALID,100,VALID,-0.0169808,VALID,18.385,VALID,8,VALID,0,
2008-12-10, 01:19:00,VALID,917.493,VALID,0,VALID,100,VALID,0,VALID,18.3559,VALID,8,VALID,0,
2008-12-10, 01:20:00,VALID,917.488,VALID,0,VALID,100,VALID,-0.0169808,VALID,18.2945,VALID,8,VALID,0,
2008-12-10, 01:21:00,VALID,917.487,VALID,0,VALID,100,VALID,0,VALID,18.2359,VALID,17,VALID,0,
2008-12-10, 01:22:00,VALID,917.484,VALID,0,VALID,100,VALID,0,VALID,18.2328,VALID,29,VALID,0,
2008-12-10, 01:23:00,VALID,917.488,VALID,0,VALID,100,VALID,0,VALID,18.2134,VALID,57,VALID,0,
2008-12-10, 01:24:00,VALID,917.479,VALID,0,VALID,100,VALID,-0.0849042,VALID,18.2558,VALID,69,VALID,0,
2008-12-10, 01:25:00,VALID,917.474,VALID,0,VALID,100,VALID,-0.0169808,VALID,18.3559,VALID,81,VALID,0,
2008-12-10, 01:26:00,VALID,917.457,VALID,0,VALID,100,VALID,-0.0339617,VALID,18.4536,VALID,111,VALID,0,
2008-12-10, 01:27:00,VALID,917.448,VALID,0,VALID,100,VALID,-0.0169808,VALID,18.4668,VALID,123,VALID,0,
2008-12-10, 01:28:00,VALID,917.445,VALID,0,VALID,100,VALID,-0.0339617,VALID,18.4312,VALID,129,VALID,0,
2008-12-10, 01:29:00,VALID,917.441,VALID,0,VALID,100,VALID,-0.0849042,VALID,18.3825,VALID,138,VALID,0,
2008-12-10, 01:30:00,VALID,917.437,VALID,0,VALID,100,VALID,-0.0169808,VALID,18.3466,VALID,136,VALID,0,
2008-12-10, 01:31:00,VALID,917.425,VALID,0,VALID,100,VALID,-0.0679233,VALID,18.3239,VALID,137,VALID,0,
2008-12-10, 01:32:00,VALID,917.406,VALID,0,VALID,100,VALID,-0.0509425,VALID,18.3369,VALID,144,VALID,0,
2008-12-10, 01:33:00,VALID,917.403,VALID,0,VALID,100,VALID,-0.0339617,VALID,18.3728,VALID,149,VALID,0,
2008-12-10, 01:34:00,VALID,917.4,VALID,0,VALID,100,VALID,-0.0339617,VALID,18.3658,VALID,156,VALID,0,
2008-12-10, 01:35:00,VALID,917.386,VALID,0,VALID,100,VALID,-0.0509425,VALID,18.3983,VALID,156,VALID,0,
2008-12-10, 01:36:00,VALID,917.377,VALID,0,VALID,100,VALID,0,VALID,18.4017,VALID,156,VALID,0,
2008-12-10, 01:37:00,VALID,917.381,VALID,0,VALID,100,VALID,-0.0169808,VALID,18.4115,VALID,156,VALID,0,
2008-12-10, 01:38:00,VALID,917.356,VALID,0,VALID,100,VALID,0,VALID,18.4112,VALID,156,VALID,0,
2008-12-10, 01:39:00,VALID,917.355,VALID,0,VALID,100,VALID,-0.0509425,VALID,18.4084,VALID,156,VALID,0,
2008-12-10, 01:40:00,VALID,917.344,VALID,0,VALID,100,VALID,-0.0849042,VALID,18.389,VALID,156,VALID,0,
2008-12-10, 01:41:00,VALID,917.331,VALID,0,VALID,100,VALID,-0.0169808,VALID,18.3628,VALID,154,VALID,0,
2008-12-10, 01:42:00,VALID,917.316,VALID,0,VALID,100,VALID,-0.0509425,VALID,18.3336,VALID,154,VALID,0,
2008-12-10, 01:43:00,VALID,917.288,VALID,0,VALID,100,VALID,-0.0339617,VALID,18.3563,VALID,154,VALID,0,
2008-12-10, 01:44:00,VALID,917.279,VALID,0,VALID,100,VALID,-0.0339617,VALID,18.3755,VALID,143,VALID,0,
2008-12-10, 01:45:00,VALID,917.265,VALID,0,VALID,100,VALID,-0.0169808,VALID,18.3823,VALID,138,VALID,0,
2008-12-10, 01:46:00,VALID,917.263,VALID,0,VALID,100,VALID,-0.0509425,VALID,18.3491,VALID,142,VALID,0,
2008-12-10, 01:47:00,VALID,917.248,VALID,0,VALID,100,VALID,-0.0339617,VALID,18.3304,VALID,135,VALID,0,
2008-12-10, 01:48:00,VALID,917.245,VALID,0,VALID,100,VALID,-0.0169808,VALID,18.3466,VALID,137,VALID,0,
2008-12-10, 01:49:00,VALID,917.237,VALID,0,VALID,100,VALID,-0.0339617,VALID,18.3693,VALID,138,VALID,0,
2008-12-10, 01:50:00,VALID,917.244,VALID,0,VALID,100,VALID,0,VALID,18.3788,VALID,138,VALID,0,
2008-12-10, 01:51:00,VALID,917.246,VALID,0,VALID,100,VALID,0,VALID,18.3918,VALID,138,VALID,0,
2008-12-10, 01:52:00,VALID,917.249,VALID,0,VALID,100,VALID,-0.0339617,VALID,18.3783,VALID,118,VALID,0,
2008-12-10, 01:53:00,VALID,917.259,VALID,0,VALID,100,VALID,-0.0679233,VALID,18.382,VALID,104,VALID,0,
2008-12-10, 01:54:00,VALID,917.257,VALID,0,VALID,100,VALID,-0.0679233,VALID,18.3725,VALID,87,VALID,0,
2008-12-10, 01:55:00,VALID,917.254,VALID,0,VALID,100,VALID,-0.0509425,VALID,18.3695,VALID,63,VALID,0,
2008-12-10, 01:56:00,VALID,917.254,VALID,0,VALID,100,VALID,-0.0339617,VALID,18.3531,VALID,63,VALID,0,
2008-12-10, 01:57:00,VALID,917.24,VALID,0,VALID,100,VALID,-0.101885,VALID,18.3433,VALID,63,VALID,0,
2008-12-10, 01:58:00,VALID,917.223,VALID,0,VALID,100,VALID,-0.0169808,VALID,18.3494,VALID,68,VALID,0,
2008-12-10, 01:59:00,VALID,917.221,VALID,0,VALID,100,VALID,-0.0849042,VALID,18.3561,VALID,82,VALID,0,
2008-12-10, 02:00:00,VALID,917.212,VALID,0,VALID,100,VALID,-0.0679233,VALID,18.385,VALID,101,VALID,0,
2008-12-10, 02:01:00,VALID,917.19,VALID,0,VALID,100,VALID,-0.0169808,VALID,18.3881,VALID,117,VALID,0,
2008-12-10, 02:02:00,VALID,917.19,VALID,0,VALID,100,VALID,-0.0339617,VALID,18.4047,VALID,126,VALID,0,
2008-12-10, 02:03:00,VALID,917.169,VALID,0,VALID,100,VALID,-0.0849042,VALID,18.4115,VALID,131,VALID,0,
2008-12-10, 02:04:00,VALID,917.159,VALID,0,VALID,100,VALID,-0.0849042,VALID,18.4115,VALID,140,VALID,0,
2008-12-10, 02:05:00,VALID,917.152,VALID,0,VALID,100,VALID,-0.0509425,VALID,18.4115,VALID,141,VALID,0,
2008-12-10, 02:06:00,VALID,917.134,VALID,0,VALID,100,VALID,-0.0339617,VALID,18.408,VALID,129,VALID,0,
2008-12-10, 02:07:00,VALID,917.12,VALID,0,VALID,100,VALID,-0.101885,VALID,18.3915,VALID,129,VALID,0,
2008-12-10, 02:08:00,VALID,917.11,VALID,0,VALID,100,VALID,-0.0679233,VALID,18.3952,VALID,129,VALID,0,
2008-12-10, 02:09:00,VALID,917.103,VALID,0,VALID,100,VALID,-0.0849042,VALID,18.408,VALID,129,VALID,0,
2008-12-10, 02:10:00,VALID,917.098,VALID,0,VALID,100,VALID,-0.0339617,VALID,18.4147,VALID,146,VALID,0,
2008-12-10, 02:11:00,VALID,917.088,VALID,0,VALID,100,VALID,-0.0849042,VALID,18.4149,VALID,146,VALID,0,
2008-12-10, 02:12:00,VALID,917.092,VALID,0,VALID,100,VALID,-0.101885,VALID,18.4082,VALID,147,VALID,0,
2008-12-10, 02:13:00,VALID,917.094,VALID,0,VALID,100,VALID,-0.118866,VALID,18.405,VALID,140,VALID,0,
2008-12-10, 02:14:00,VALID,917.105,VALID,0,VALID,100,VALID,-0.0849042,VALID,18.4214,VALID,142,VALID,0,
2008-12-10, 02:15:00,VALID,917.102,VALID,0,VALID,100,VALID,-0.0849042,VALID,18.4307,VALID,141,VALID,0,
2008-12-10, 02:16:00,VALID,917.12,VALID,0,VALID,100,VALID,-0.0509425,VALID,18.4372,VALID,146,VALID,0.0399306,
2008-12-10, 02:17:00,VALID,917.117,VALID,0,VALID,100,VALID,-0.0679233,VALID,18.4536,VALID,140,VALID,0,
2008-12-10, 02:18:00,VALID,917.109,VALID,0,VALID,100,VALID,-0.0509425,VALID,18.4733,VALID,134,VALID,0,
2008-12-10, 02:19:00,VALID,917.101,VALID,0,VALID,100,VALID,-0.0849042,VALID,18.4766,VALID,133,VALID,0.0571733,
2008-12-10, 02:20:00,VALID,917.094,VALID,0,VALID,100,VALID,-0.0679233,VALID,18.4763,VALID,125,VALID,0.0948661,
2008-12-10, 02:21:00,VALID,917.09,VALID,0,VALID,100,VALID,-0.0679233,VALID,18.4634,VALID,127,VALID,0.239258,
2008-12-10, 02:22:00,VALID,917.091,VALID,0,VALID,100,VALID,-0.0849042,VALID,18.4731,VALID,131,VALID,0.237351,
2008-12-10, 02:23:00,VALID,917.101,VALID,0,VALID,100,VALID,-0.0509425,VALID,18.4828,VALID,140,VALID,0.0105378,
2008-12-10, 02:24:00,VALID,917.086,VALID,0,VALID,100,VALID,-0.0849042,VALID,18.4923,VALID,139,VALID,0.211914,
2008-12-10, 02:25:00,VALID,917.087,VALID,0,VALID,100,VALID,-0.118866,VALID,18.4925,VALID,140,VALID,0.247768,
2008-12-10, 02:26:00,VALID,917.065,VALID,0,VALID,100,VALID,-0.0679233,VALID,18.4893,VALID,137,VALID,0.372638,
2008-12-10, 02:27:00,VALID,917.055,VALID,0,VALID,100,VALID,-0.0169808,VALID,18.4951,VALID,131,VALID,0.254383,
2008-12-10, 02:28:00,VALID,917.06,VALID,0,VALID,100,VALID,-0.0509425,VALID,18.4823,VALID,129,VALID,0.11319,
2008-12-10, 02:29:00,VALID,917.059,VALID,0,VALID,100,VALID,-0.0849042,VALID,18.4826,VALID,136,VALID,0.218936,
2008-12-10, 02:30:00,VALID,917.062,VALID,0,VALID,100,VALID,-0.0849042,VALID,18.4928,VALID,132,VALID,0.147675,
2008-12-10, 02:31:00,VALID,917.071,VALID,0,VALID,100,VALID,-0.0679233,VALID,18.4925,VALID,130,VALID,0.143714,
2008-12-10, 02:32:00,VALID,917.07,VALID,0,VALID,100,VALID,-0.0849042,VALID,18.515,VALID,137,VALID,0.0762649,
2008-12-10, 02:33:00,VALID,917.06,VALID,0,VALID,100,VALID,-0.0339617,VALID,18.5312,VALID,138,VALID,0.551847,
2008-12-10, 02:34:00,VALID,917.036,VALID,0,VALID,100,VALID,-0.0509425,VALID,18.5507,VALID,140,VALID,0.511628,
2008-12-10, 02:35:00,VALID,917.03,VALID,0,VALID,100,VALID,-0.0509425,VALID,18.5931,VALID,133,VALID,1.15518,
2008-12-10, 02:36:00,VALID,917.019,VALID,0,VALID,100,VALID,-0.0509425,VALID,18.6028,VALID,139,VALID,0.214208,
2008-12-10, 02:37:00,VALID,916.997,VALID,0,VALID,100,VALID,-0.0509425,VALID,18.5989,VALID,127,VALID,0.0135789,
2008-12-10, 02:38:00,VALID,916.991,VALID,0,VALID,100,VALID,0,VALID,18.6111,VALID,121,VALID,0.509896,
2008-12-10, 02:39:00,VALID,916.986,VALID,0,VALID,100,VALID,0,VALID,18.6241,VALID,125,VALID,0.351944,
2008-12-10, 02:40:00,VALID,916.971,VALID,0,VALID,100,VALID,0.0169808,VALID,18.6336,VALID,124,VALID,0.0348837,
2008-12-10, 02:41:00,VALID,916.972,VALID,0,VALID,100,VALID,0.0169808,VALID,18.6565,VALID,132,VALID,0.0182292,
2008-12-10, 02:42:00,VALID,916.975,VALID,0,VALID,100,VALID,0.0169808,VALID,18.6728,VALID,135,VALID,0.0543403,
2008-12-10, 02:43:00,VALID,916.963,VALID,0,VALID,100,VALID,0,VALID,18.6827,VALID,129,VALID,0,
2008-12-10, 02:44:00,VALID,916.949,VALID,0,VALID,100,VALID,0.0169808,VALID,18.6955,VALID,113,VALID,0,
2008-12-10, 02:45:01,VALID,916.931,VALID,0,VALID,100,VALID,0,VALID,18.6955,VALID,93,VALID,0,
2008-12-10, 02:46:00,VALID,916.917,VALID,0,VALID,100,VALID,0.0169808,VALID,18.6955,VALID,84,VALID,0,
2008-12-10, 02:47:00,VALID,916.891,VALID,0,VALID,100,VALID,0.0339617,VALID,18.6853,VALID,78,VALID,0.0339177,
2008-12-10, 02:48:00,VALID,916.877,VALID,0,VALID,100,VALID,0.0849042,VALID,18.702,VALID,55,VALID,0.0854048,
2008-12-10, 02:49:00,VALID,916.866,VALID,0,VALID,100,VALID,0.0339617,VALID,18.6855,VALID,65,VALID,0.078311,
2008-12-10, 02:50:00,VALID,916.848,VALID,0,VALID,100,VALID,0.0169808,VALID,18.6922,VALID,67,VALID,0,
2008-12-10, 02:51:01,VALID,916.833,VALID,0,VALID,100,VALID,0.0509425,VALID,18.6825,VALID,71,VALID,0,
2008-12-10, 02:52:01,VALID,916.824,VALID,0,VALID,100,VALID,0.0339617,VALID,18.6825,VALID,82,VALID,0,
2008-12-10, 02:53:00,VALID,916.811,VALID,0,VALID,100,VALID,0.0339617,VALID,18.6695,VALID,76,VALID,0,
2008-12-10, 02:54:00,VALID,916.811,VALID,0,VALID,100,VALID,0.0679233,VALID,18.6628,VALID,81,VALID,0,
2008-12-10, 02:55:00,VALID,916.812,VALID,0,VALID,100,VALID,0.0339617,VALID,18.6533,VALID,85,VALID,0,
2008-12-10, 02:56:00,VALID,916.827,VALID,0,VALID,100,VALID,0.0509425,VALID,18.6503,VALID,92,VALID,0,
2008-12-10, 02:57:00,VALID,916.834,VALID,0,VALID,100,VALID,0.0509425,VALID,18.6538,VALID,92,VALID,0,
2008-12-10, 02:58:00,VALID,916.84,VALID,0,VALID,100,VALID,0.0339617,VALID,18.6373,VALID,97,VALID,0,
2008-12-10, 02:59:01,VALID,916.85,VALID,0,VALID,100,VALID,0.0339617,VALID,18.6338,VALID,92,VALID,0,
2008-12-10, 03:00:00,VALID,916.86,VALID,0,VALID,100,VALID,0,VALID,18.6308,VALID,88,VALID,0.0604539,
2008-12-10, 03:01:01,VALID,916.866,VALID,0,VALID,100,VALID,0.0169808,VALID,18.6114,VALID,91,VALID,0.0147372,
2008-12-10, 03:02:00,VALID,916.866,VALID,0,VALID,100,VALID,0,VALID,18.5884,VALID,99,VALID,0.0984003,
2008-12-10, 03:03:01,VALID,916.862,VALID,0,VALID,100,VALID,0.0339617,VALID,18.5755,VALID,120,VALID,0.0190549,
2008-12-10, 03:04:01,VALID,916.856,VALID,0,VALID,100,VALID,0.0169808,VALID,18.5692,VALID,127,VALID,0,
2008-12-10, 03:05:01,VALID,916.835,VALID,0,VALID,100,VALID,0.0169808,VALID,18.5562,VALID,119,VALID,0.182617,
2008-12-10, 03:06:00,VALID,916.822,VALID,0,VALID,100,VALID,0.0509425,VALID,18.5495,VALID,115,VALID,0.462054,
2008-12-10, 03:07:01,VALID,916.801,VALID,0,VALID,100,VALID,0.0339617,VALID,18.547,VALID,125,VALID,0.0811738,
2008-12-10, 03:08:01,VALID,916.79,VALID,0,VALID,100,VALID,-0.0509425,VALID,18.5607,VALID,129,VALID,0.374047,
2008-12-10, 03:09:01,VALID,916.77,VALID,0,VALID,100,VALID,-0.0509425,VALID,18.5639,VALID,133,VALID,0.662642,
2008-12-10, 03:10:01,VALID,916.766,VALID,0,VALID,100,VALID,-0.0679233,VALID,18.5607,VALID,144,VALID,0.950462,
2008-12-10, 03:11:01,VALID,916.758,VALID,0,VALID,100,VALID,-0.0849042,VALID,18.5704,VALID,145,VALID,0.388148,
2008-12-10, 03:12:01,VALID,916.746,VALID,0,VALID,100,VALID,-0.0339617,VALID,18.5734,VALID,145,VALID,0,
2008-12-10, 03:13:01,VALID,916.758,VALID,0,VALID,100,VALID,-0.0339617,VALID,18.5801,VALID,145,VALID,0,
2008-12-10, 03:14:00,VALID,916.743,VALID,0,VALID,100,VALID,-0.0849042,VALID,18.5901,VALID,150,VALID,0,
2008-12-10, 03:15:00,VALID,916.749,VALID,0,VALID,100,VALID,-0.0679233,VALID,18.5933,VALID,131,VALID,0,
2008-12-10, 03:16:00,VALID,916.756,VALID,0,VALID,100,VALID,-0.0509425,VALID,18.6095,VALID,150,VALID,0,
2008-12-10, 03:17:00,VALID,916.751,VALID,0,VALID,100,VALID,-0.0509425,VALID,18.5996,VALID,146,VALID,0,
2008-12-10, 03:18:00,VALID,916.758,VALID,0,VALID,100,VALID,-0.0339617,VALID,18.5998,VALID,147,VALID,0,
2008-12-10, 03:19:01,VALID,916.757,VALID,0,VALID,100,VALID,-0.0169808,VALID,18.5993,VALID,138,VALID,0.0710392,
2008-12-10, 03:20:00,VALID,916.763,VALID,0,VALID,100,VALID,-0.0509425,VALID,18.6031,VALID,132,VALID,0.150073,
2008-12-10, 03:21:00,VALID,916.741,VALID,0,VALID,100,VALID,-0.0339617,VALID,18.5864,VALID,155,VALID,0,
2008-12-10, 03:22:00,VALID,916.753,VALID,0,VALID,100,VALID,-0.0679233,VALID,18.5936,VALID,164,VALID,0,
2008-12-10, 03:23:00,VALID,916.738,VALID,0,VALID,100,VALID,-0.0509425,VALID,18.5739,VALID,142,VALID,0,
2008-12-10, 03:24:01,VALID,916.728,VALID,0,VALID,100,VALID,-0.0339617,VALID,18.5669,VALID,128,VALID,0,
2008-12-10, 03:25:01,VALID,916.715,VALID,0,VALID,100,VALID,-0.0509425,VALID,18.5704,VALID,128,VALID,0,
2008-12-10, 03:26:01,VALID,916.718,VALID,0,VALID,100,VALID,-0.0509425,VALID,18.5667,VALID,125,VALID,0,
2008-12-10, 03:27:00,VALID,916.722,VALID,0,VALID,100,VALID,-0.0679233,VALID,18.5706,VALID,106,VALID,0,
2008-12-10, 03:28:01,VALID,916.704,VALID,0,VALID,100,VALID,-0.0849042,VALID,18.5509,VALID,101,VALID,0,
2008-12-10, 03:29:01,VALID,916.696,VALID,0,VALID,100,VALID,-0.0509425,VALID,18.5444,VALID,104,VALID,0,
2008-12-10, 03:30:01,VALID,916.702,VALID,0,VALID,100,VALID,-0.0679233,VALID,18.5516,VALID,104,VALID,0,
2008-12-10, 03:31:00,VALID,916.71,VALID,0,VALID,100,VALID,-0.0509425,VALID,18.5317,VALID,106,VALID,0,
2008-12-10, 03:32:01,VALID,916.724,VALID,0,VALID,100,VALID,-0.0509425,VALID,18.5155,VALID,106,VALID,0,
2008-12-10, 03:33:00,VALID,916.719,VALID,0,VALID,100,VALID,0,VALID,18.499,VALID,106,VALID,0,
2008-12-10, 03:34:00,VALID,916.729,VALID,0,VALID,100,VALID,-0.0339617,VALID,18.4893,VALID,108,VALID,0,
2008-12-10, 03:35:00,VALID,916.724,VALID,0,VALID,100,VALID,-0.0679233,VALID,18.4958,VALID,116,VALID,0,
2008-12-10, 03:36:01,VALID,916.712,VALID,0,VALID,100,VALID,-0.101885,VALID,18.4995,VALID,116,VALID,0,
2008-12-10, 03:37:00,VALID,916.703,VALID,0,VALID,100,VALID,0,VALID,18.4928,VALID,116,VALID,0,
2008-12-10, 03:38:01,VALID,916.699,VALID,0,VALID,100,VALID,0,VALID,18.4921,VALID,118,VALID,0,
2008-12-10, 03:39:01,VALID,916.705,VALID,0,VALID,100,VALID,0.0169808,VALID,18.4784,VALID,128,VALID,0.588224,
2008-12-10, 03:40:01,VALID,916.684,VALID,0,VALID,100,VALID,0.0169808,VALID,18.4821,VALID,131,VALID,0.452381,
2008-12-10, 03:41:01,VALID,916.669,VALID,0,VALID,100,VALID,0.0169808,VALID,18.4752,VALID,132,VALID,0.692336,
2008-12-10, 03:42:01,VALID,916.667,VALID,0,VALID,100,VALID,0,VALID,18.4555,VALID,135,VALID,0.00872093,
2008-12-10, 03:43:01,VALID,916.667,VALID,0,VALID,100,VALID,0,VALID,18.4464,VALID,140,VALID,0,
2008-12-10, 03:44:01,VALID,916.67,VALID,0,VALID,100,VALID,0.0339617,VALID,18.4295,VALID,136,VALID,0,
2008-12-10, 03:45:01,VALID,916.654,VALID,0,VALID,100,VALID,0.0339617,VALID,18.4168,VALID,128,VALID,0.128049,
2008-12-10, 03:46:01,VALID,916.658,VALID,0,VALID,100,VALID,0.0509425,VALID,18.4006,VALID,129,VALID,0.339453,
2008-12-10, 03:47:00,VALID,916.652,VALID,0,VALID,100,VALID,0.0169808,VALID,18.3616,VALID,140,VALID,0.687881,
2008-12-10, 03:48:00,VALID,916.645,VALID,0,VALID,100,VALID,0.0509425,VALID,18.3387,VALID,138,VALID,0.673828,